Regional Weather Roundup
Issued by NWS

Home | Current Version | Previous Version | Graphics & Text | Print | Product List | Glossary On
Versions: 1 2 3 4 5 6 7 8 9 10 11 12 13 14 15 16 17 18 19 20 21 22 23 24 25 26 27 28 29 30 31 32 33 34 35 36 37 38 39 40 41 42 43 44 45 46 47 48 49 50
000
ASUS43 KFSD 050810
RWRSD

WEATHER ROUNDUP FOR SOUTH DAKOTA
NATIONAL WEATHER SERVICE SIOUX FALLS SD
300 AM CDT TUE MAY 05 2015

NOTE: "FAIR" INDICATES FEW OR NO CLOUDS BELOW 12,000 FEET WITH NO
SIGNIFICANT WEATHER AND/OR OBSTRUCTIONS TO VISIBILITY.


SDZ001>005-009-010-012>017-050900-
NORTHWEST AND NORTH CENTRAL SOUTH DAKOTA

CITY           SKY/WX    TMP DP  RH WIND       PRES   REMARKS
BUFFALO          N/A     44  29  55 SE16      29.95F
FAITH            N/A     50  28  42 SE14      30.05F
MOBRIDGE       PTCLDY    55  28  35 SE12      30.06F
$$

SDZ012>016-024>037-041>051-057-063-072>074-050900-
SOUTHWEST AND SOUTH CENTRAL SOUTH DAKOTA

CITY           SKY/WX    TMP DP  RH WIND       PRES   REMARKS
RAPID CTY ARPT CLEAR     44  35  70 S8        30.05F
PIERRE         PTCLDY    49  29  46 E6        30.07F
CUSTER         PTCLDY    42  27  55 S3        30.08F
ELLSWORTH AFB  CLEAR     45  35  69 S12       30.04F
PHILIP         PTCLDY    40  26  57 CALM      30.07F
PINE RIDGE     PTCLDY    41  33  73 E6        30.06F
SPEARFISH      FAIR      41  34  75 SW3       30.00F
WINNER         FAIR      48  35  60 SE7       30.09S
$$

SDZ004>011-016>023-039-040-050900-
NORTHEAST SOUTH DAKOTA

CITY           SKY/WX    TMP DP  RH WIND       PRES   REMARKS
ABERDEEN       MOCLDY    51  32  48 E9        30.13F
WATERTOWN      PTCLDY    54  30  40 E7        30.15F
BROOKINGS      CLEAR     52  28  40 NE6       30.15F
SISSETON         N/A     42  29  59 S6        30.17F
$$

SDZ017-020-022-023-036>040-048>070-050900-
SOUTHEAST SOUTH DAKOTA

CITY           SKY/WX    TMP DP  RH WIND       PRES   REMARKS
SIOUX FALLS    CLEAR     45  32  60 NE3       30.12F
HURON          CLEAR     48  30  49 SE7       30.12F
CHAMBERLAIN    CLEAR     45  35  67 E5        30.10S
MITCHELL       CLEAR     45  35  68 NE8       30.12S
YANKTON        CLOUDY    52  45  76 NE6       30.10S
$$

ABBREVIATIONS USED IN REMARKS
   TC - TEMPERATURE IN CELSIUS
  WCI - WIND CHILL INDEX
   HX - HEAT INDEX
  VSB - VISIBILITY



USA.gov is the U.S. government's official web portal to all federal, state and local government web resources and services.